De Queen, AR

6:21 PM CST on December 12, 2019 (GMT -0600)
Helms Sevier County

Weather History for KDEQ - August, 2019

Change the Weather History Date:

Thursday, August 8, 2019

  Actual Average Record
Temperature  
Mean Temperature 84 °F 82 °F  
Max Temperature 93 °F 94 °F 107 °F (1947)
Min Temperature 75 °F 69 °F 57 °F (2004)
Degree Days  
Heating Degree Days 0 0  
Month to date heating degree days 0 0  
Since 1 June heating degree days 0 0  
Since 1 July heating degree days 0 0  
Cooling Degree Days 20 17  
Month to date cooling degree days 144 132  
Year to date cooling degree days 1281 1224  
Since 1 June cooling degree days 1008 1007  
Growing Degree Days 34 (Base 50)    
Moisture  
Dew Point 76 °F    
Average Humidity 96    
Maximum Humidity 100    
Minimum Humidity 67    
Precipitation  
Precipitation 0.00 in 0.08 in 1.24 in (2018)
Month to date precipitation 0.08 0.56  
Year to date precipitation 37.16 29.98  
Snow  
Snow 0.00 in - - ()
Month to date snowfall 0.0  
Since 1 June snowfall 0.0  
Since 1 July snowfall 0.0  
Snow Depth 0.00 in    
Sea Level Pressure  
Sea Level Pressure 29.88 in    
Wind  
Wind Speed 1 mph ()    
Max Wind Speed 10 mph    
Max Gust Speed 13 mph    
Visibility 4.5 miles    
Events Fog    
T = Trace of Precipitation, MM = Missing Value Source: Averaged Metar Reports

Daily Weather History Graph

Daily Weather History Graph

Search for Another Location

Airport or City:

Astronomy

Aug. 08, 2019 Rise Set
Actual Time 6:33 AM CDT 8:12 PM CDT
Civil Twilight 6:06 AM CDT 8:39 PM CDT
Nautical Twilight 5:34 AM CDT 9:11 PM CDT
Astronomical Twilight 5:00 AM CDT 9:45 PM CDT
Moon 2:48 PM CDT (8/8) 12:54 AM CDT (8/8)
Length of Visible Light 14h 32m
Length of Day
13h 38m
First Quarter, 60% of the Moon is Illuminated
Aug 8
First Quarter
Aug 15
Full
Aug 23
Last Quarter
Aug 30
New
Sep 5
First Quarter

Hourly Weather History & Observations

Time (CDT) Temp. Heat Index Dew Point Humidity Pressure Visibility Wind Dir Wind Speed Gust Speed Precip Events Conditions
12:53 AM 79.0 °F - 79.0 °F 100% 29.85 in 7.0 mi Calm Calm - N/A   Clear
1:53 AM 78.1 °F - 78.1 °F 100% 29.85 in 5.0 mi Calm Calm - N/A   Clear
2:53 AM 77.0 °F - 77.0 °F 100% 29.84 in 6.0 mi Calm Calm - N/A   Clear
3:09 AM 75.9 °F - 75.9 °F 100% 29.86 in 1.5 mi Calm Calm - N/A   Clear
3:19 AM 75.9 °F - 75.9 °F 100% 29.86 in 0.8 mi Calm Calm - N/A   Clear
3:36 AM 75.9 °F - 75.9 °F 100% 29.86 in 0.5 mi Calm Calm - N/A Fog Fog
3:49 AM 75.2 °F - 75.2 °F 100% 29.86 in 1.2 mi Calm Calm - N/A   Partly Cloudy
3:53 AM 75.9 °F - 75.9 °F 100% 29.85 in 1.8 mi Calm Calm - N/A   Partly Cloudy
3:58 AM 75.9 °F - 75.9 °F 100% 29.86 in 3.0 mi Calm Calm - N/A   Partly Cloudy
4:53 AM 75.9 °F - 75.9 °F 100% 29.85 in 5.0 mi Calm Calm - N/A   Clear
5:53 AM 75.9 °F - 75.9 °F 100% 29.87 in 2.5 mi Calm Calm - N/A   Clear
6:00 AM 75.9 °F - 75.9 °F 100% 29.89 in 4.0 mi Calm Calm - N/A   Clear
6:15 AM 75.0 °F - 75.0 °F 100% 29.90 in 2.5 mi Calm Calm - N/A   Clear
6:24 AM 75.0 °F - 75.0 °F 100% 29.90 in 5.0 mi East 3.5 mph - N/A   Clear
6:53 AM 75.9 °F - 75.9 °F 100% 29.89 in 4.0 mi Calm Calm - N/A   Clear
7:53 AM 78.1 °F - 78.1 °F 100% 29.90 in 5.0 mi Calm Calm - N/A   Clear
8:53 AM 82.0 °F 90.2 °F 77.0 °F 85% 29.91 in 10.0 mi SW 5.8 mph - N/A   Clear
9:53 AM 84.9 °F 96.6 °F 78.1 °F 80% 29.91 in 10.0 mi WSW 5.8 mph - N/A   Clear
10:53 AM 89.1 °F 101.4 °F 77.0 °F 67% 29.93 in 10.0 mi WSW 3.5 mph - N/A   Clear